Location: Arcueil
(48.7999°N, 2.3326°E)
Time: 06:06:45
(UTC+00:00)

Cosmos 1461 - Visible Passes

Search period start: 30 September 2023 00:00
Search period end: 10 October 2023 00:00
Orbit: 491 x 629 km, 65.0° (Epoch: 29 September)

Date Brightness Start Highest point End Pass type
(mag) Time Alt. Az. Time Alt. Az. Time Alt. Az.
30 Sep 5.7 01:49:48 17° NNE 01:49:48 17° NNE 01:50:55 10° NNE visible
30 Sep 5.1 03:25:42 17° NNW 03:25:53 17° NNW 03:28:53 10° NNE visible
01 Oct 5.8 01:48:14 16° NNE 01:48:14 16° NNE 01:49:11 10° NNE visible
01 Oct 5.2 03:24:08 15° NNW 03:24:25 15° NNW 03:27:03 10° NNE visible
02 Oct 5.9 01:46:38 14° NNE 01:46:38 14° NNE 01:47:24 10° NNE visible
02 Oct 5.4 03:22:31 13° NNW 03:22:57 13° NNW 03:25:10 10° N visible
03 Oct 6.0 01:44:59 13° NNE 01:44:59 13° NNE 01:45:34 10° NNE visible
03 Oct 5.5 03:20:53 12° NNW 03:21:28 12° NNW 03:23:15 10° N visible
03 Oct 5.7 05:01:26 10° N 05:02:02 10° N 05:02:38 10° NNE visible
04 Oct 6.1 01:43:19 12° NNE 01:43:19 12° NNE 01:43:42 10° NNE visible
04 Oct 5.6 03:19:13 11° NNW 03:19:58 11° NNW 03:21:17 10° N visible
04 Oct 5.6 04:59:22 10° N 05:00:33 11° NNE 05:01:44 10° NNE visible
05 Oct 6.2 01:41:38 11° NNE 01:41:38 11° NNE 01:41:47 10° NNE visible
05 Oct 5.7 03:17:42 10° NNW 03:18:27 10° N 03:19:12 10° N visible
05 Oct 5.6 04:57:22 10° N 04:59:01 12° NNE 05:00:40 10° NE visible
06 Oct 5.6 04:55:22 10° N 04:57:27 13° NNE 04:59:31 10° NE visible
07 Oct 5.5 04:53:22 10° NNW 04:55:51 15° NNE 04:58:16 10° ENE visible
08 Oct 5.5 04:51:21 10° NNW 04:54:11 17° NNE 04:56:57 10° ENE visible
09 Oct 5.3 04:49:20 10° NNW 04:52:29 19° NNE 04:55:33 10° ENE visible
